FW2814 Weather Reports


time (UTC)temp
F
wind
direction
speed
knots
gust
knots
rain 1hr
in
rain 24hr
in
rain mn
in
humidity
%
barometer
mb
20260902140122 81 203 0.0 0.0 0.00 0.00 0.00 91 992.4
20260902135143 80 203 0.0 0.0 0.00 0.00 0.00 91 992.4
20260902134122 79 203 0.0 0.0 0.00 0.00 0.00 93 992.2
20260902133143 78 203 0.0 0.0 0.00 0.00 0.00 93 992.2
20260902132124 77 203 0.0 0.0 0.00 0.00 0.00 93 992.2
20260902131124 77 203 0.0 0.0 0.00 0.00 0.00 94 992.2
20260902130123 76 203 0.0 0.0 0.00 0.00 0.00 94 992.2
20260902125122 75 158 0.0 0.0 0.00 0.00 0.00 94 992.2
20260902124122 75 248 0.0 0.0 0.00 0.00 0.00 94 992.2
20260902123122 75 270 0.0 0.0 0.00 0.00 0.00 94 992.1
20260902122122 74 248 0.0 0.0 0.00 0.00 0.00 94 992.0
20260902121122 74 270 0.0 0.0 0.00 0.00 0.00 94 991.9
20260902120124 74 248 0.0 0.0 0.00 0.00 0.00 94 991.9
20260902115124 74 248 0.0 0.0 0.00 0.00 0.00 94 991.7
20260902114124 74 270 0.0 0.0 0.00 0.00 0.00 93 991.6
20260902113122 75 248 0.0 0.0 0.00 0.00 0.00 93 991.5
20260902112122 75 270 0.0 0.0 0.00 0.00 0.00 93 991.4
20260902111122 75 248 0.0 0.0 0.00 0.00 0.00 92 991.2
20260902110122 75 248 0.0 0.0 0.00 0.00 0.00 92 991.2
20260902105122 75 248 0.0 0.0 0.00 0.00 0.00 92 991.2
20260902104122 75 248 0.0 0.0 0.00 0.00 0.00 92 991.2
20260902103124 76 248 0.0 0.0 0.00 0.00 0.00 92 991.0
20260902102124 76 248 0.0 0.0 0.00 0.00 0.00 92 991.0
20260902101143 76 248 0.0 0.0 0.00 0.00 0.00 92 990.8
20260902100143 76 248 0.0 0.0 0.00 0.00 0.00 92 990.8
20260902095122 76 248 0.0 0.0 0.00 0.00 0.00 92 990.7
20260902094122 76 248 0.0 0.0 0.00 0.00 0.00 92 990.6
20260902093122 76 248 0.0 0.0 0.00 0.00 0.00 92 990.6
20260902092124 76 248 0.0 0.0 0.00 0.00 0.00 92 990.5
20260902091124 76 248 0.0 0.0 0.00 0.00 0.00 93 990.4
20260902090122 76 248 0.0 0.0 0.00 0.00 0.00 93 990.2
20260902085122 76 248 0.0 0.0 0.00 0.00 0.00 93 990.2
20260902084122 76 248 0.0 0.0 0.00 0.00 0.00 94 990.2
20260902083122 76 248 0.0 0.0 0.00 0.00 0.00 94 990.2
20260902082122 76 248 0.0 0.0 0.00 0.00 0.00 94 990.1
20260902081122 76 248 0.0 0.0 0.00 0.00 0.00 94 990.0
20260902080124 76 248 0.0 0.0 0.00 0.00 0.00 94 990.0
20260902075145 76 248 0.0 0.0 0.00 0.00 0.00 93 990.0
20260902074124 76 248 0.0 0.0 0.00 0.00 0.00 93 990.1
20260902073122 76 248 0.0 0.0 0.00 0.00 0.00 93 990.1
20260902072122 76 270 0.0 0.0 0.00 0.00 0.00 93 990.2
20260902071122 76 270 0.0 0.0 0.00 0.00 0.00 92 990.1
20260902070122 76 270 0.0 0.0 0.00 0.00 0.00 92 990.1
20260902065122 76 270 0.0 0.0 0.00 0.00 0.00 91 990.1
20260902064124 76 270 0.0 0.0 0.00 0.00 0.00 92 990.2
20260902063125 76 270 0.0 0.0 0.00 0.00 0.00 92 990.2
20260902062125 76 270 0.0 0.0 0.00 0.00 0.00 91 990.2
20260902061122 76 270 0.0 0.0 0.00 0.00 0.00 92 990.1
20260902060122 77 270 0.0 0.0 0.00 0.00 0.00 92 990.1
20260902055122 77 270 0.0 0.0 0.00 0.00 0.00 92 990.2
20260902054122 77 270 0.0 0.0 0.00 0.00 0.00 91 990.2
20260902053122 77 248 0.0 0.0 0.00 0.00 0.00 91 990.2
20260902052122 77 248 0.0 0.0 0.00 0.00 0.00 91 990.2
20260902051144 77 158 0.0 0.0 0.00 0.00 0.00 90 990.2
20260902050122 78 158 0.0 0.0 0.00 0.00 0.00 90 990.2
20260902045122 78 158 0.0 0.0 0.00 0.00 0.00 90 990.2
20260902044122 78 180 0.0 0.0 0.00 0.00 0.00 88 990.2
20260902043122 79 180 0.0 0.0 0.00 0.00 0.00 87 990.2
20260902042122 79 158 0.0 0.0 0.00 0.00 0.00 87 990.4
20260902041122 79 203 0.0 0.0 0.00 0.00 0.00 86 990.4
20260902040122 79 248 0.0 0.0 0.00 0.00 0.00 86 990.4
20260902035147 79 270 0.0 0.0 0.00 0.00 0.00 86 990.2
20260902034143 79 270 0.0 0.0 0.00 0.00 0.00 86 990.2
20260902033122 80 248 0.0 0.0 0.00 0.00 0.00 86 990.4
20260902032122 80 270 0.0 0.0 0.00 0.00 0.00 86 990.5
20260902031122 80 270 0.0 0.0 0.00 0.00 0.00 86 990.6
20260902030122 80 158 0.0 0.0 0.00 0.00 0.00 86 990.6
20260902025122 80 270 0.0 0.0 0.00 0.00 0.00 87 990.6
20260902024122 80 270 0.0 0.0 0.00 0.00 0.00 86 990.7
20260902023122 80 270 0.0 0.0 0.00 0.00 0.00 85 990.5
20260902022122 80 270 0.0 0.0 0.00 0.00 0.00 85 990.5
20260902021122 80 270 0.0 0.0 0.00 0.00 0.00 85 990.4
20260902020122 80 270 0.0 0.0 0.00 0.00 0.00 84 990.4
20260902015122 80 270 0.0 0.0 0.00 0.00 0.00 84 990.2
20260902014143 81 270 0.0 0.0 0.00 0.00 0.00 84 990.2
20260902013122 81 270 0.0 0.0 0.00 0.00 0.00 82 990.1
20260902012122 82 270 0.0 0.0 0.00 0.00 0.00 82 990.1
20260902011122 82 270 0.0 0.0 0.00 0.00 0.00 82 989.9
20260902010122 83 270 0.0 0.0 0.00 0.00 0.00 81 989.9
20260902005122 83 270 0.0 0.0 0.00 0.00 0.00 82 989.9
20260902004122 83 270 0.0 0.0 0.00 0.00 0.00 82 990.0
20260902003122 84 270 0.0 0.0 0.00 0.00 0.00 82 989.9
20260902002122 85 270 0.0 0.0 0.00 0.00 0.00 81 989.9
20260902001143 85 270 0.0 0.0 0.00 0.00 0.00 79 989.9
20260902000126 86 270 0.0 0.0 0.00 0.00 0.00 78 989.9
20260901235123 87 270 0.0 0.0 0.00 0.00 0.00 76 989.9
20260901234124 87 270 0.0 0.0 0.00 0.00 0.00 75 990.0
20260901233122 88 270 0.0 0.0 0.00 0.00 0.00 75 990.0
20260901232122 89 248 0.0 0.0 0.00 0.00 0.00 73 990.1
20260901231122 90 247 0.0 0.9 0.00 0.00 0.00 72 989.9
20260901230122 91 248 0.0 0.0 0.00 0.00 0.00 71 989.9
20260901225122 91 270 0.0 0.0 0.00 0.00 0.00 71 990.0
20260901224122 92 270 0.0 0.0 0.00 0.00 0.00 70 990.0
20260901223122 92 270 0.0 0.0 0.00 0.00 0.00 70 990.0
20260901222122 93 225 0.0 0.0 0.00 0.00 0.00 68 990.1
20260901221122 94 203 0.0 0.0 0.00 0.00 0.00 63 990.0
20260901220122 94 248 0.0 0.0 0.00 0.00 0.00 62 990.0
20260901215122 95 203 0.0 0.0 0.00 0.00 0.00 63 990.0
20260901214122 95 180 0.0 0.0 0.00 0.00 0.00 60 990.0
20260901213122 96 203 0.0 0.0 0.00 0.00 0.00 60 990.0
20260901212122 96 248 0.0 0.0 0.00 0.00 0.00 59 990.1
20260901211125 97 180 0.0 0.0 0.00 0.00 0.00 57 990.2
20260901210125 99 158 0.0 0.0 0.00 0.00 0.00 56 990.2
20260901205122 100 270 0.0 0.0 0.00 0.00 0.00 53 990.2
20260901204122 98 135 0.0 0.0 0.00 0.00 0.00 57 990.4
20260901203143 97 90 0.0 0.0 0.00 0.00 0.00 60 990.5
20260901202122 97 113 0.0 0.0 0.00 0.00 0.00 58 990.5
20260901201143 98 270 0.0 0.0 0.00 0.00 0.00 55 990.6
20260901200125 97 180 0.0 0.0 0.00 0.00 0.00 58 990.6
20260901195125 98 225 0.0 0.0 0.00 0.00 0.00 57 990.7
20260901194125 98 69 0.0 1.7 0.00 0.00 0.00 56 990.8
20260901193122 96 158 0.0 0.0 0.00 0.00 0.00 58 991.0
20260901192143 98 160 0.0 1.7 0.00 0.00 0.00 58 991.1
20260901191122 98 90 0.9 2.6 0.00 0.00 0.00 57 991.2
20260901190122 99 12 0.9 2.6 0.00 0.00 0.00 55 991.2
20260901185122 96 145 0.0 1.7 0.00 0.00 0.00 61 991.2
20260901184122 95 165 0.9 2.6 0.00 0.00 0.00 58 991.4
20260901183122 96 204 0.9 1.7 0.00 0.00 0.00 60 991.6
20260901182122 95 167 0.9 2.6 0.00 0.00 0.00 61 991.6
20260901181122 95 149 0.9 2.6 0.00 0.00 0.00 63 991.8
20260901180122 94 148 0.9 2.6 0.00 0.00 0.00 64 991.8
20260901175122 95 209 0.0 1.7 0.00 0.00 0.00 63 991.9
20260901174122 94 175 0.9 2.6 0.00 0.00 0.00 65 992.1
20260901173122 94 91 0.9 2.6 0.00 0.00 0.00 64 992.2
20260901172122 93 111 0.0 1.7 0.00 0.00 0.00 67 992.4
20260901171122 94 108 0.0 2.6 0.00 0.00 0.00 68 992.6
20260901170143 94 91 0.0 1.7 0.00 0.00 0.00 68 992.6
20260901165122 91 158 1.7 3.5 0.00 0.00 0.00 72 992.6
20260901164122 90 150 0.9 1.7 0.00 0.00 0.00 73 992.8
20260901163122 90 158 0.0 1.7 0.00 0.00 0.00 73 992.8
20260901162122 91 88 0.9 2.6 0.00 0.00 0.00 72 992.8
20260901161122 90 158 0.0 1.7 0.00 0.00 0.00 73 992.9
20260901160143 89 127 0.0 1.7 0.00 0.00 0.00 75 992.9
20260901155122 89 131 0.9 2.6 0.00 0.00 0.00 74 993.0
20260901154124 89 80 1.7 3.5 0.00 0.00 0.00 75 993.0
20260901153122 89 126 0.0 2.6 0.00 0.00 0.00 75 992.9
20260901152122 88 167 0.0 1.7 0.00 0.00 0.00 76 992.9
20260901151122 86 202 0.0 1.7 0.00 0.00 0.00 79 992.9
20260901150122 86 45 0.0 0.9 0.00 0.00 0.00 80 992.9
20260901145122 85 89 0.0 2.6 0.00 0.00 0.00 81 992.9
20260901144143 84 82 0.0 1.7 0.00 0.00 0.00 84 992.8
20260901143122 84 113 0.0 0.0 0.00 0.00 0.00 87 992.9
20260901142122 83 135 0.0 0.0 0.00 0.00 0.00 88 992.9
20260901141143 82 158 0.0 0.0 0.00 0.00 0.00 90 992.9